ZSSPA FAGM-FAPN

Flight info

Callsign ZSSPA
Flight time 0h 53m
Altitude 10000
Route DCT 261429S0280405E GAV PNV DCT
Aircraft P28R/L-SDZ/C

Departure

Time 2026-04-27 10:33
Airport Rand Airport (FAGM)

Arrival

Time 2026-04-27 11:26
Airport Pilanesberg International Airport (FAPN)
Time Latitude Longitude Altitude Speed Heading
2026-04-27 10:02 -26.24053 28.15207 5449 ft 0 kts 195°
2026-04-27 10:19 -26.24061 28.15204 5450 ft 0 kts 207°
2026-04-27 10:19 -26.24078 28.15191 5450 ft 6 kts 227°
2026-04-27 10:20 -26.24078 28.15150 5450 ft 7 kts 262°
2026-04-27 10:20 -26.24120 28.15153 5450 ft 9 kts 159°
2026-04-27 10:20 -26.24165 28.15211 5450 ft 13 kts 89°
2026-04-27 10:20 -26.24163 28.15322 5450 ft 15 kts 89°
2026-04-27 10:21 -26.24163 28.15439 5449 ft 13 kts 88°
2026-04-27 10:21 -26.24131 28.15505 5449 ft 7 kts 58°
2026-04-27 10:21 -26.24124 28.15553 5449 ft 6 kts 89°
2026-04-27 10:21 -26.24137 28.15589 5449 ft 0 kts 123°
2026-04-27 10:28 -26.24156 28.15620 5450 ft 10 kts 123°
2026-04-27 10:28 -26.24161 28.15666 5450 ft 8 kts 109°
2026-04-27 10:29 -26.24194 28.15708 5450 ft 3 kts 134°
2026-04-27 10:29 -26.24196 28.15710 5450 ft 0 kts 134°
2026-04-27 10:29 -26.24205 28.15720 5450 ft 9 kts 135°
2026-04-27 10:30 -26.24247 28.15736 5450 ft 6 kts 277°
2026-04-27 10:30 -26.24246 28.15723 5450 ft 0 kts 269°
2026-04-27 10:32 -26.24246 28.15653 5450 ft 35 kts 269°
2026-04-27 10:32 -26.24255 28.15177 5462 ft 84 kts 270°
2026-04-27 10:32 -26.24288 28.14462 5606 ft 98 kts 269°
2026-04-27 10:32 -26.24346 28.13700 5889 ft 94 kts 267°
2026-04-27 10:33 -26.24418 28.12971 6311 ft 93 kts 263°
2026-04-27 10:33 -26.24486 28.12233 6596 ft 108 kts 266°
2026-04-27 10:33 -26.24515 28.11326 6629 ft 126 kts 267°
2026-04-27 10:33 -26.24596 28.10296 6541 ft 139 kts 259°
2026-04-27 10:34 -26.24844 28.09238 6442 ft 144 kts 248°
2026-04-27 10:34 -26.25340 28.08292 6323 ft 138 kts 240°
2026-04-27 10:34 -26.25841 28.07422 6341 ft 128 kts 238°
2026-04-27 10:34 -26.26314 28.06621 6318 ft 121 kts 241°
2026-04-27 10:35 -26.26548 28.05690 6305 ft 131 kts 256°
2026-04-27 10:35 -26.26890 28.04722 6362 ft 132 kts 247°
2026-04-27 10:35 -26.27289 28.03839 6578 ft 124 kts 243°
2026-04-27 10:35 -26.27709 28.03039 6838 ft 117 kts 241°
2026-04-27 10:36 -26.28124 28.02287 7075 ft 109 kts 241°
2026-04-27 10:36 -26.28535 28.01592 7368 ft 110 kts 241°
2026-04-27 10:36 -26.28976 28.00870 7630 ft 114 kts 237°
2026-04-27 10:36 -26.29468 28.00169 7892 ft 116 kts 234°
2026-04-27 10:37 -26.29973 27.99464 8164 ft 117 kts 236°
2026-04-27 10:37 -26.30462 27.98724 8443 ft 118 kts 237°
2026-04-27 10:37 -26.30948 27.97990 8708 ft 119 kts 236°
2026-04-27 10:37 -26.31454 27.97258 8983 ft 119 kts 236°
2026-04-27 10:38 -26.31947 27.96526 9258 ft 119 kts 237°
2026-04-27 10:38 -26.32449 27.95791 9531 ft 118 kts 237°
2026-04-27 10:38 -26.32935 27.95070 9806 ft 116 kts 237°
2026-04-27 10:38 -26.33413 27.94364 10081 ft 113 kts 237°
2026-04-27 10:39 -26.33890 27.93665 10267 ft 118 kts 237°
2026-04-27 10:39 -26.34412 27.92882 10264 ft 133 kts 237°
2026-04-27 10:39 -26.34975 27.92046 10250 ft 135 kts 236°
2026-04-27 10:39 -26.35546 27.91214 10243 ft 136 kts 236°
2026-04-27 10:40 -26.36131 27.90361 10252 ft 137 kts 236°
2026-04-27 10:40 -26.36700 27.89516 10244 ft 138 kts 236°
2026-04-27 10:40 -26.37279 27.88652 10246 ft 138 kts 236°
2026-04-27 10:40 -26.37856 27.87807 10243 ft 138 kts 236°
2026-04-27 10:41 -26.38436 27.86950 10245 ft 137 kts 236°
2026-04-27 10:41 -26.39006 27.86103 10244 ft 138 kts 236°
2026-04-27 10:41 -26.39590 27.85245 10240 ft 138 kts 236°
2026-04-27 10:41 -26.40163 27.84396 10244 ft 138 kts 236°
2026-04-27 10:42 -26.40745 27.83540 10243 ft 137 kts 236°
2026-04-27 10:42 -26.41316 27.82694 10242 ft 137 kts 236°
2026-04-27 10:42 -26.41895 27.81836 10249 ft 138 kts 236°
2026-04-27 10:42 -26.42471 27.80987 10251 ft 138 kts 236°
2026-04-27 10:43 -26.43055 27.80121 10243 ft 138 kts 236°
2026-04-27 10:43 -26.43631 27.79272 10245 ft 138 kts 236°
2026-04-27 10:43 -26.44206 27.78417 10244 ft 139 kts 236°
2026-04-27 10:43 -26.44794 27.77553 10246 ft 139 kts 236°
2026-04-27 10:44 -26.45374 27.76695 10242 ft 139 kts 236°
2026-04-27 10:44 -26.45960 27.75824 10237 ft 139 kts 236°
2026-04-27 10:44 -26.46545 27.74962 10233 ft 139 kts 236°
2026-04-27 10:44 -26.47125 27.74115 10230 ft 138 kts 235°
2026-04-27 10:45 -26.47712 27.73260 10236 ft 138 kts 236°
2026-04-27 10:45 -26.48292 27.72415 10231 ft 138 kts 235°
2026-04-27 10:45 -26.48878 27.71568 10238 ft 138 kts 236°
2026-04-27 10:45 -26.49471 27.70717 10231 ft 138 kts 235°
2026-04-27 10:46 -26.50061 27.69866 10225 ft 139 kts 235°
2026-04-27 10:46 -26.50648 27.69018 10225 ft 138 kts 235°
2026-04-27 10:46 -26.51238 27.68167 10224 ft 138 kts 235°
2026-04-27 10:46 -26.51822 27.67327 10225 ft 138 kts 235°
2026-04-27 10:47 -26.52396 27.66464 10220 ft 137 kts 239°
2026-04-27 10:47 -26.52528 27.65449 10212 ft 137 kts 281°
2026-04-27 10:47 -26.51961 27.64592 10208 ft 144 kts 322°
2026-04-27 10:47 -26.50964 27.64365 10212 ft 152 kts
2026-04-27 10:48 -26.49966 27.64790 10222 ft 158 kts 26°
2026-04-27 10:48 -26.49027 27.65427 10216 ft 158 kts 27°
2026-04-27 10:48 -26.48011 27.65792 10210 ft 152 kts 357°
2026-04-27 10:48 -26.47026 27.65496 10209 ft 145 kts 331°
2026-04-27 10:49 -26.46133 27.65000 10221 ft 144 kts 327°
2026-04-27 10:49 -26.45225 27.64502 10216 ft 145 kts 331°
2026-04-27 10:49 -26.44298 27.64072 10221 ft 146 kts 332°
2026-04-27 10:49 -26.43356 27.63618 10205 ft 146 kts 330°
2026-04-27 10:50 -26.42432 27.63143 10207 ft 146 kts 330°
2026-04-27 10:50 -26.41508 27.62682 10197 ft 145 kts 331°
2026-04-27 10:50 -26.40575 27.62227 10188 ft 144 kts 331°
2026-04-27 10:50 -26.39667 27.61780 10191 ft 144 kts 331°
2026-04-27 10:51 -26.38759 27.61326 10195 ft 144 kts 331°
2026-04-27 10:51 -26.37832 27.60867 10205 ft 146 kts 331°
2026-04-27 10:51 -26.36905 27.60410 10202 ft 147 kts 331°
2026-04-27 10:51 -26.35966 27.59942 10191 ft 147 kts 331°
2026-04-27 10:52 -26.35036 27.59481 10199 ft 147 kts 332°
2026-04-27 10:52 -26.34092 27.59018 10194 ft 147 kts 331°
2026-04-27 10:52 -26.33165 27.58558 10196 ft 147 kts 331°
2026-04-27 10:52 -26.32227 27.58090 10194 ft 147 kts 331°
2026-04-27 10:53 -26.31301 27.57630 10195 ft 147 kts 332°
2026-04-27 10:53 -26.29416 27.56703 10199 ft 147 kts 332°
2026-04-27 10:53 -26.28487 27.56241 10200 ft 147 kts 332°
2026-04-27 10:54 -26.27540 27.55772 10193 ft 148 kts 331°
2026-04-27 10:54 -26.26601 27.55302 10215 ft 151 kts 332°
2026-04-27 10:54 -26.25629 27.54828 10202 ft 151 kts 332°
2026-04-27 10:54 -26.24661 27.54354 10186 ft 151 kts 332°
2026-04-27 10:55 -26.23709 27.53881 10185 ft 151 kts 332°
2026-04-27 10:55 -26.22748 27.53399 10182 ft 150 kts 332°
2026-04-27 10:55 -26.21788 27.52927 10193 ft 151 kts 332°
2026-04-27 10:55 -26.20824 27.52457 10199 ft 153 kts 332°
2026-04-27 10:56 -26.19851 27.51968 10198 ft 153 kts 332°
2026-04-27 10:56 -26.18882 27.51486 10188 ft 153 kts 332°
2026-04-27 10:56 -26.17900 27.51016 10181 ft 152 kts 332°
2026-04-27 10:56 -26.16932 27.50532 10202 ft 152 kts 332°
2026-04-27 10:57 -26.15974 27.50046 10179 ft 152 kts 332°
2026-04-27 10:57 -26.15001 27.49576 10186 ft 154 kts 333°
2026-04-27 10:57 -26.14019 27.49101 10192 ft 153 kts 332°
2026-04-27 10:57 -26.13047 27.48611 10185 ft 153 kts 332°
2026-04-27 10:58 -26.12081 27.48129 10184 ft 154 kts 332°
2026-04-27 10:58 -26.11095 27.47648 10189 ft 154 kts 333°
2026-04-27 10:58 -26.10104 27.47169 10196 ft 153 kts 332°
2026-04-27 10:58 -26.09139 27.46682 10196 ft 153 kts 332°
2026-04-27 10:59 -26.08155 27.46194 10191 ft 154 kts 332°
2026-04-27 10:59 -26.07182 27.45717 10201 ft 155 kts 333°
2026-04-27 10:59 -26.06181 27.45230 10188 ft 156 kts 332°
2026-04-27 11:00 -26.04222 27.44259 10218 ft 155 kts 332°
2026-04-27 11:00 -26.03238 27.43777 10194 ft 153 kts 332°
2026-04-27 11:00 -26.02267 27.43296 10215 ft 154 kts 332°
2026-04-27 11:00 -26.01290 27.42816 10206 ft 154 kts 333°
2026-04-27 11:01 -26.00304 27.42334 10207 ft 154 kts 333°
2026-04-27 11:01 -25.99316 27.41842 10202 ft 154 kts 332°
2026-04-27 11:01 -25.98340 27.41359 10207 ft 155 kts 332°
2026-04-27 11:01 -25.97352 27.40880 10192 ft 154 kts 332°
2026-04-27 11:02 -25.96380 27.40400 10197 ft 154 kts 332°
2026-04-27 11:02 -25.95403 27.39890 10193 ft 153 kts 326°
2026-04-27 11:02 -25.94655 27.39091 10189 ft 151 kts 304°
2026-04-27 11:02 -25.94045 27.38158 10162 ft 148 kts 301°
2026-04-27 11:03 -25.93461 27.37211 10170 ft 147 kts 300°
2026-04-27 11:03 -25.92897 27.36277 10166 ft 146 kts 300°
2026-04-27 11:03 -25.92333 27.35346 10162 ft 146 kts 301°
2026-04-27 11:03 -25.91755 27.34415 10162 ft 145 kts 301°
2026-04-27 11:04 -25.91037 27.33605 10164 ft 147 kts 316°
2026-04-27 11:04 -25.90210 27.32940 10183 ft 150 kts 323°
2026-04-27 11:04 -25.89303 27.32334 10164 ft 152 kts 326°
2026-04-27 11:04 -25.88340 27.31860 10178 ft 153 kts 335°
2026-04-27 11:05 -25.87336 27.31450 10176 ft 154 kts 337°
2026-04-27 11:05 -25.86317 27.31061 10171 ft 154 kts 337°
2026-04-27 11:05 -25.85301 27.30678 10166 ft 154 kts 338°
2026-04-27 11:05 -25.84283 27.30308 10167 ft 155 kts 338°
2026-04-27 11:06 -25.83280 27.29914 10163 ft 153 kts 335°
2026-04-27 11:06 -25.82276 27.29489 10169 ft 153 kts 335°
2026-04-27 11:06 -25.81277 27.29087 10166 ft 154 kts 336°
2026-04-27 11:06 -25.80270 27.28690 10166 ft 154 kts 336°
2026-04-27 11:07 -25.79250 27.28278 10177 ft 155 kts 335°
2026-04-27 11:07 -25.78235 27.27864 10171 ft 156 kts 336°
2026-04-27 11:07 -25.77215 27.27452 10151 ft 154 kts 336°
2026-04-27 11:07 -25.76220 27.27053 10155 ft 153 kts 336°
2026-04-27 11:08 -25.75212 27.26643 10153 ft 152 kts 336°
2026-04-27 11:08 -25.74224 27.26243 10163 ft 152 kts 336°
2026-04-27 11:08 -25.73562 27.25975 10167 ft 153 kts 336°
2026-04-27 11:08 -25.72217 27.25430 10157 ft 153 kts 337°
2026-04-27 11:09 -25.71548 27.25162 10156 ft 154 kts 337°
2026-04-27 11:09 -25.70551 27.24762 10153 ft 152 kts 336°
2026-04-27 11:09 -25.69564 27.24361 10150 ft 151 kts 336°
2026-04-27 11:09 -25.68577 27.23959 10156 ft 152 kts 336°
2026-04-27 11:10 -25.67576 27.23555 10159 ft 152 kts 336°
2026-04-27 11:10 -25.66590 27.23156 10154 ft 151 kts 336°
2026-04-27 11:10 -25.65597 27.22756 10160 ft 151 kts 336°
2026-04-27 11:10 -25.64614 27.22360 10160 ft 151 kts 336°
2026-04-27 11:11 -25.63621 27.21959 10158 ft 151 kts 336°
2026-04-27 11:11 -25.62644 27.21564 10158 ft 150 kts 336°
2026-04-27 11:11 -25.61654 27.21163 10154 ft 149 kts 336°
2026-04-27 11:11 -25.60685 27.20771 10164 ft 149 kts 336°
2026-04-27 11:12 -25.59700 27.20375 10157 ft 150 kts 336°
2026-04-27 11:12 -25.58723 27.19981 10156 ft 150 kts 336°
2026-04-27 11:12 -25.57745 27.19587 10156 ft 150 kts 336°
2026-04-27 11:12 -25.56756 27.19189 10161 ft 150 kts 336°
2026-04-27 11:13 -25.55785 27.18797 10155 ft 150 kts 336°
2026-04-27 11:13 -25.54801 27.18398 10156 ft 150 kts 336°
2026-04-27 11:13 -25.53817 27.18000 10163 ft 150 kts 336°
2026-04-27 11:13 -25.52835 27.17607 10153 ft 150 kts 336°
2026-04-27 11:14 -25.51848 27.17210 10152 ft 150 kts 336°
2026-04-27 11:14 -25.50878 27.16818 10154 ft 149 kts 336°
2026-04-27 11:14 -25.49897 27.16422 10158 ft 149 kts 335°
2026-04-27 11:14 -25.48931 27.16031 10160 ft 149 kts 336°
2026-04-27 11:15 -25.47961 27.15644 10152 ft 149 kts 336°
2026-04-27 11:15 -25.46982 27.15248 10159 ft 149 kts 335°
2026-04-27 11:15 -25.46012 27.14856 10155 ft 149 kts 336°
2026-04-27 11:15 -25.45045 27.14470 10153 ft 149 kts 336°
2026-04-27 11:16 -25.44074 27.14080 10152 ft 148 kts 336°
2026-04-27 11:16 -25.43098 27.13684 10166 ft 149 kts 336°
2026-04-27 11:16 -25.42120 27.13287 10165 ft 151 kts 336°
2026-04-27 11:16 -25.41131 27.12913 10161 ft 153 kts 340°
2026-04-27 11:17 -25.40066 27.13028 10134 ft 158 kts 18°
2026-04-27 11:17 -25.39205 27.13797 9879 ft 160 kts 46°
2026-04-27 11:17 -25.38492 27.14721 9635 ft 159 kts 49°
2026-04-27 11:17 -25.37805 27.15681 9381 ft 158 kts 50°
2026-04-27 11:18 -25.37131 27.16629 9127 ft 158 kts 49°
2026-04-27 11:18 -25.36277 27.17387 8869 ft 156 kts 34°
2026-04-27 11:18 -25.35415 27.18067 8635 ft 151 kts 33°
2026-04-27 11:18 -25.34473 27.18476 8372 ft 143 kts
2026-04-27 11:19 -25.33581 27.18169 8115 ft 133 kts 319°
2026-04-27 11:19 -25.32978 27.17414 7884 ft 129 kts 303°
2026-04-27 11:19 -25.32801 27.16492 7638 ft 126 kts 259°
2026-04-27 11:19 -25.33302 27.15703 7415 ft 129 kts 218°
2026-04-27 11:20 -25.34050 27.15152 7197 ft 130 kts 214°
2026-04-27 11:20 -25.34840 27.14641 6954 ft 131 kts 211°
2026-04-27 11:20 -25.35630 27.14153 6708 ft 131 kts 211°
2026-04-27 11:20 -25.36491 27.13839 6469 ft 136 kts 185°
2026-04-27 11:21 -25.37380 27.14228 6212 ft 142 kts 141°
2026-04-27 11:21 -25.37982 27.15088 5983 ft 143 kts 125°
2026-04-27 11:21 -25.38276 27.16133 5739 ft 145 kts 88°
2026-04-27 11:21 -25.37920 27.17142 5510 ft 143 kts 47°
2026-04-27 11:22 -25.37199 27.17893 5266 ft 141 kts 36°
2026-04-27 11:22 -25.36428 27.18550 5053 ft 142 kts 33°
2026-04-27 11:22 -25.35621 27.19183 4825 ft 139 kts 31°
2026-04-27 11:22 -25.34862 27.19772 4562 ft 130 kts 31°
2026-04-27 11:23 -25.34089 27.20251 4342 ft 120 kts 23°
2026-04-27 11:23 -25.33359 27.20658 4376 ft 114 kts 22°
2026-04-27 11:23 -25.32657 27.21030 4397 ft 112 kts 20°
2026-04-27 11:23 -25.31955 27.21407 4408 ft 114 kts 21°
2026-04-27 11:24 -25.31216 27.21696 4421 ft 109 kts 358°
2026-04-27 11:24 -25.30581 27.21468 4333 ft 97 kts 319°
2026-04-27 11:24 -25.30228 27.20875 4222 ft 92 kts 291°
2026-04-27 11:24 -25.30207 27.20205 4075 ft 88 kts 252°
2026-04-27 11:25 -25.30611 27.19699 3939 ft 90 kts 221°
2026-04-27 11:25 -25.31121 27.19319 3819 ft 86 kts 223°
2026-04-27 11:25 -25.31582 27.18904 3687 ft 86 kts 226°
2026-04-27 11:25 -25.32037 27.18490 3572 ft 84 kts 220°
2026-04-27 11:26 -25.32492 27.18102 3440 ft 80 kts 223°
2026-04-27 11:26 -25.32864 27.17782 3429 ft 53 kts 217°
2026-04-27 11:26 -25.33104 27.17586 3432 ft 35 kts 216°
2026-04-27 11:26 -25.33266 27.17449 3431 ft 24 kts 217°
2026-04-27 11:27 -25.33378 27.17356 3431 ft 17 kts 216°
2026-04-27 11:27 -25.33468 27.17281 3429 ft 11 kts 219°
2026-04-27 11:27 -25.33483 27.17229 3430 ft 5 kts 304°
2026-04-27 11:27 -25.33472 27.17211 3431 ft 2 kts 307°
2026-04-27 11:28 -25.33462 27.17196 3431 ft 3 kts 305°
2026-04-27 11:28 -25.33464 27.17169 3431 ft 5 kts 221°
2026-04-27 11:28 -25.33496 27.17138 3431 ft 4 kts 269°
2026-04-27 11:28 -25.33494 27.17115 3431 ft 4 kts 205°
2026-04-27 11:29 -25.33504 27.17107 3431 ft 1 kts 217°
2026-04-27 11:29 -25.33505 27.17107 3431 ft 0 kts 217°